This is the latest recevied weather packets stored in our database for station/object HB9EYW-6. If no packets are shown the sender has not sent any weather packets the latest 10 day(s).
| Time | Temp. | Humidity | Pressure | Rain* | Wind** | Luminosity | Snow |
|---|---|---|---|---|---|---|---|
| 1778157904 | 20° C | 31% | 0 hPa | 0 mm | - | - | - |
| 1778157604 | 20.56° C | 33% | 0 hPa | 0 mm | - | - | - |
| 1778157304 | 20° C | 36% | 0 hPa | 0 mm | - | - | - |
| 1778157004 | 18.89° C | 37% | 0 hPa | 0 mm | - | - | - |
| 1778156704 | 18.33° C | 37% | 0 hPa | 0 mm | - | - | - |
| 1778156404 | 18.33° C | 37% | 0 hPa | 0 mm | - | - | - |
| 1778156104 | 18.33° C | 37% | 0 hPa | 0 mm | - | - | - |
| 1778155804 | 17.78° C | 36% | 0 hPa | 0 mm | - | - | - |
| 1778155504 | 17.22° C | 41% | 0 hPa | 0 mm | - | - | - |
| 1778155204 | 17.22° C | 41% | 0 hPa | 0 mm | - | - | - |
| 1778154904 | 16.67° C | 42% | 0 hPa | 0 mm | - | - | - |
| 1778154604 | 16.67° C | 42% | 0 hPa | 0 mm | - | - | - |
| 1778154304 | 16.67° C | 44% | 0 hPa | 0 mm | - | - | - |
| 1778154004 | 16.67° C | 44% | 0 hPa | 0 mm | - | - | - |
| 1778153704 | 16.67° C | 43% | 0 hPa | 0 mm | - | - | - |
| 1778153404 | 17.22° C | 43% | 0 hPa | 0 mm | - | - | - |
| 1778153104 | 17.22° C | 43% | 0 hPa | 0 mm | - | - | - |
| 1778152804 | 16.67° C | 45% | 0 hPa | 0 mm | - | - | - |
| 1778152504 | 16.67° C | 48% | 0 hPa | 0 mm | - | - | - |
| 1778152204 | 16.11° C | 48% | 0 hPa | 0 mm | - | - | - |
| 1778151904 | 16.11° C | 46% | 0 hPa | 0 mm | - | - | - |
| 1778151604 | 16.11° C | 46% | 0 hPa | 0 mm | - | - | - |
| 1778151304 | 16.67° C | 47% | 0 hPa | 0 mm | - | - | - |
| 1778151004 | 16.67° C | 50% | 0 hPa | 0 mm | - | - | - |
| 1778150704 | 16.67° C | 48% | 0 hPa | 0 mm | - | - | - |
* Rain latest hour (hover to see other rain measurements)
** Current wind speed in m/s (hover to see current wind gust speed)